This is the latest recevied weather packets stored in our database for station/object KD2FGL-13. If no packets are shown the sender has not sent any weather packets the latest 10 day(s).
| Time | Temp. | Humidity | Pressure | Rain* | Wind** | Luminosity | Snow |
|---|---|---|---|---|---|---|---|
| 1777474865 | 22.22° C | 32% | 1016.1 hPa | 0 mm | - | - | - |
| 1777474562 | 22.22° C | 32% | 1016.2 hPa | 0 mm | - | - | - |
| 1777473954 | 22.22° C | 32% | 1016 hPa | 0 mm | - | - | - |
| 1777473650 | 22.22° C | 32% | 1016.1 hPa | 0 mm | - | - | - |
| 1777473347 | 21.67° C | 33% | 1016 hPa | 0 mm | - | - | - |
| 1777473042 | 21.67° C | 33% | 1016 hPa | 0 mm | - | - | - |
| 1777472131 | 21.11° C | 34% | 1016.2 hPa | 0 mm | - | - | - |
| 1777471827 | 21.11° C | 35% | 1016.3 hPa | 0 mm | - | - | - |
| 1777471219 | 20.56° C | 36% | 1016.5 hPa | 0 mm | - | - | - |
| 1777470914 | 20° C | 37% | 1016.5 hPa | 0 mm | - | - | - |
| 1777470004 | 18.89° C | 40% | 1017 hPa | 0 mm | - | - | - |
| 1777469700 | 18.89° C | 41% | 1016.9 hPa | 0 mm | - | - | - |
| 1777469395 | 18.33° C | 42% | 1017 hPa | 0 mm | - | - | - |
| 1777469091 | 17.78° C | 44% | 1017 hPa | 0 mm | - | - | - |
| 1777468788 | 17.22° C | 45% | 1017.2 hPa | 0 mm | - | - | - |
| 1777468180 | 16.11° C | 46% | 1017.5 hPa | 0 mm | - | - | - |
| 1777467876 | 16.11° C | 47% | 1017.6 hPa | 0 mm | - | - | - |
| 1777467572 | 15.56° C | 48% | 1017.7 hPa | 0 mm | - | - | - |
| 1777466660 | 15° C | 49% | 1018.1 hPa | 0 mm | - | - | - |
| 1777466053 | 14.44° C | 49% | 1017.9 hPa | 0 mm | - | - | - |
| 1777465140 | 14.44° C | 50% | 1018.1 hPa | 0 mm | - | - | - |
| 1777463924 | 13.33° C | 52% | 1018.1 hPa | 0 mm | - | - | - |
| 1777462102 | 12.22° C | 54% | 1018.8 hPa | 0 mm | - | - | - |
| 1777461798 | 11.67° C | 55% | 1018.7 hPa | 0 mm | - | - | - |
| 1777461495 | 11.67° C | 55% | 1018.9 hPa | 0 mm | - | - | - |
* Rain since midnight (hover to see other rain measurements)
** Current wind speed in m/s (hover to see current wind gust speed)